Tacoma, WA

11:35 PM PDT on August 28, 2016 (GMT -0700)
McChord Air Force Base

Weather History for KTCM - August, 2014

Change the Weather History Date:

Wednesday, August 20, 2014

  Actual Average Record
Temperature  
Mean Temperature 64 °F -  
Max Temperature 72 °F 74 °F 94 °F (2016)
Min Temperature 55 °F 51 °F 44 °F (2001)
Degree Days  
Heating Degree Days 1    
Growing Degree Days 14 (Base 50)    
Moisture  
Dew Point 51 °F    
Average Humidity 67    
Maximum Humidity 84    
Minimum Humidity 54    
Precipitation  
Precipitation 0.00 in - - ()
Sea Level Pressure  
Sea Level Pressure 29.97 in    
Wind  
Wind Speed 9 mph (SW)    
Max Wind Speed 12 mph    
Max Gust Speed -    
Visibility 10 miles    
Events      
Averages and records for this station are not official NWS values.
T = Trace of Precipitation, MM = Missing Value Source: NWS Daily Summary

Daily Weather History Graph

Daily Weather History Graph

Search for Another Location

Airport or City:

Trip Planner

Search our weather history database for the weather conditions in past years. The results will help you decide how hot, cold, wet, or windy it might be!

Date:

Astronomy

Aug. 20, 2014 Rise Set
Actual Time 6:13 AM PDT 8:12 PM PDT
Civil Twilight 5:40 AM PDT 8:44 PM PDT
Nautical Twilight 5:00 AM PDT 9:25 PM PDT
Astronomical Twilight 4:15 AM PDT 10:09 PM PDT
Moon 1:50 AM PDT (8/20) 5:07 PM PDT (8/20)
Length of Visible Light 15h 04m
Length of Day
13h 58m
Waning Crescent, 20% of the Moon is Illuminated
Aug 20
Waning Crescent
Aug 25
New
Sep 2
First Quarter
Sep 8
Full
Sep 15
Last Quarter

Hourly Weather History & Observations

Time (PDT) Temp. Dew Point Humidity Pressure Visibility Wind Dir Wind Speed Gust Speed Precip Events Conditions
12:58 AM 58.1 °F 51.4 °F 78% 29.89 in 10.0 mi SW 10.4 mph - N/A   Clear
1:58 AM 57.4 °F 51.6 °F 81% 29.89 in 10.0 mi SSW 8.1 mph - N/A   Clear
2:58 AM 58.3 °F 51.4 °F 78% 29.89 in 10.0 mi SW 10.4 mph - N/A   Overcast
3:58 AM 58.5 °F 51.4 °F 77% 29.91 in 10.0 mi SW 8.1 mph - N/A   Overcast
4:58 AM 58.3 °F 50.9 °F 76% 29.92 in 10.0 mi SSW 8.1 mph - N/A   Overcast
5:58 AM 58.1 °F 50.7 °F 76% 29.94 in 10.0 mi South 8.1 mph - N/A   Overcast
6:58 AM 58.3 °F 50.9 °F 76% 29.95 in 10.0 mi South 10.4 mph - N/A   Overcast
7:27 AM 59.0 °F 51.8 °F 77% 29.95 in 10.0 mi South 9.2 mph - N/A   Light Drizzle
7:58 AM 59.2 °F 50.7 °F 74% 29.97 in 10.0 mi SSW 9.2 mph - N/A   Overcast
8:58 AM 60.3 °F 50.4 °F 70% 29.98 in 10.0 mi SSW 11.5 mph - N/A   Overcast
9:58 AM 62.2 °F 50.2 °F 65% 29.98 in 10.0 mi SSW 10.4 mph - N/A   Overcast
10:13 AM 62.6 °F 50.0 °F 63% 29.98 in 10.0 mi SSW 8.1 mph - N/A   Overcast
10:58 AM 63.5 °F 50.5 °F 63% 29.99 in 10.0 mi SW 8.1 mph - N/A   Overcast
11:08 AM 64.4 °F 50.0 °F 59% 29.98 in 10.0 mi SW 11.5 mph - N/A   Overcast
11:13 AM 64.4 °F 50.0 °F 59% 29.98 in 10.0 mi SSW 8.1 mph - N/A   Overcast
11:25 AM 64.4 °F 50.0 °F 59% 29.98 in 10.0 mi SW 9.2 mph - N/A   Overcast
11:58 AM 65.3 °F 50.9 °F 60% 29.99 in 10.0 mi SW 9.2 mph - N/A   Overcast
12:58 PM 66.6 °F 51.3 °F 58% 30.00 in 10.0 mi SW 8.1 mph - N/A   Overcast
1:58 PM 68.0 °F 52.0 °F 56% 30.00 in 10.0 mi SW 11.5 mph - N/A   Overcast
2:58 PM 69.6 °F 52.5 °F 54% 30.00 in 10.0 mi SSW 6.9 mph - N/A   Overcast
3:58 PM 70.5 °F 53.4 °F 55% 29.99 in 10.0 mi West 8.1 mph - N/A   Mostly Cloudy
4:58 PM 70.9 °F 53.4 °F 54% 29.99 in 10.0 mi WSW 10.4 mph - N/A   Overcast
5:58 PM 71.1 °F 54.3 °F 55% 29.98 in 10.0 mi WNW 8.1 mph - N/A   Overcast
6:58 PM 69.8 °F 54.1 °F 57% 29.98 in 10.0 mi West 8.1 mph - N/A   Clear
7:58 PM 66.6 °F 51.6 °F 59% 29.98 in 10.0 mi WNW 8.1 mph - N/A   Clear
9:58 PM 60.8 °F 51.4 °F 71% 30.02 in 10.0 mi West 9.2 mph - N/A   Clear
10:58 PM 57.7 °F 51.6 °F 80% 30.03 in 10.0 mi SSE 1.2 mph - N/A   Clear
11:58 PM 55.4 °F 50.5 °F 84% 30.03 in 10.0 mi SW 5.8 mph - N/A   Clear